sat.trackr.live / text

‹ back to catalog

STARLINK-3601

NORAD 51804 · 2022-017AN

PAYLOAD ACTIVE UNKNOWN

§ Identity

Operator
Country
US
Launch date
2022-02-25
Launch site
AFWTR
Launch vehicle
Mass (kg)
RCS (m²)

Purposes: comms

External: N2YO · Heavens-Above · Gunter

§ Orbital elements

Epoch: 2026-05-24T23:55:03.094176Z

Period
95.44 min
Inclination
53.2138°
Eccentricity
0.0001169
Mean motion
15.08833914 rev/d
Perigee alt
539.0 km
Apogee alt
540.6 km
Semi-major
6,917.9 km
B*
-2.7491e-5
RAAN
346.5647°
Arg perigee
92.4399°
Mean anomaly
267.6727°
Rev number
23,567

§ Raw data

STARLINK-36011 51804U 22017AN  26144.99656359 -.00000725  00000+0 -27491-4 0  99912 51804  53.2138 346.5647 0001169  92.4399 267.6727 15.08833914235672

JSON: /api/v1/satellites/51804 · /tle

For live sub-satellite position, see the globe view (requires WebGL).

§ Visibility from observer

Set your observer location to see the next 7 days of passes ≥ 10°. The values pass through the URL so the page stays shareable.

No JS? Fill the form by hand. The geolocation button needs JavaScript.